Year,Month,Day,Hour,Minute,Value (Times are PST for temperature in C)
2012,07,25,00,00,14.30
2012,07,25,00,01,14.30
2012,07,25,00,02,14.20
2012,07,25,00,03,14.20
2012,07,25,00,04,14.20
2012,07,25,00,05,14.10
2012,07,25,00,06,14.10
2012,07,25,00,07,14.10
2012,07,25,00,08,14.00
2012,07,25,00,09,14.00
2012,07,25,00,10,14.00
2012,07,25,00,11,13.90
2012,07,25,00,12,13.90
2012,07,25,00,13,13.90
2012,07,25,00,14,13.80
2012,07,25,00,15,13.80
2012,07,25,00,16,13.80
2012,07,25,00,17,13.80
2012,07,25,00,18,13.70
2012,07,25,00,19,13.70
2012,07,25,00,20,13.70
2012,07,25,00,21,13.70
2012,07,25,00,22,13.70
2012,07,25,00,23,13.60
2012,07,25,00,24,13.60
2012,07,25,00,25,13.60
2012,07,25,00,26,13.60
2012,07,25,00,27,13.60
2012,07,25,00,28,13.60
2012,07,25,00,29,13.60
2012,07,25,00,30,13.50
2012,07,25,00,31,13.50
2012,07,25,00,32,13.50
2012,07,25,00,33,13.50
2012,07,25,00,34,13.50
2012,07,25,00,35,13.50
2012,07,25,00,36,13.50
2012,07,25,00,37,13.50
2012,07,25,00,38,13.50
2012,07,25,00,39,13.50
2012,07,25,00,40,13.50
2012,07,25,00,41,13.50
2012,07,25,00,42,13.50
2012,07,25,00,43,13.50
2012,07,25,00,44,13.50
2012,07,25,00,45,13.50
2012,07,25,00,46,13.60
2012,07,25,00,47,13.60
2012,07,25,00,48,13.60
2012,07,25,00,49,13.60
2012,07,25,00,50,13.60
2012,07,25,00,51,13.70
2012,07,25,00,52,13.70
2012,07,25,00,53,13.70
2012,07,25,00,54,13.80
2012,07,25,00,55,13.80
2012,07,25,00,56,13.80
2012,07,25,00,57,13.80
2012,07,25,00,58,13.80
2012,07,25,00,59,13.80
2012,07,25,01,00,13.90
2012,07,25,01,01,13.90
2012,07,25,01,02,13.90
2012,07,25,01,03,13.90
2012,07,25,01,04,13.90
2012,07,25,01,05,13.90
2012,07,25,01,06,13.90
2012,07,25,01,07,13.90
2012,07,25,01,08,13.80
2012,07,25,01,09,13.80
2012,07,25,01,10,13.80
2012,07,25,01,11,13.80
2012,07,25,01,12,13.80
2012,07,25,01,13,13.80
2012,07,25,01,14,13.80
2012,07,25,01,15,13.80
2012,07,25,01,16,13.80
2012,07,25,01,17,13.80
2012,07,25,01,18,13.80
2012,07,25,01,19,13.80
2012,07,25,01,20,13.80
2012,07,25,01,21,13.80
2012,07,25,01,22,13.80
2012,07,25,01,23,13.80
2012,07,25,01,24,13.80
2012,07,25,01,25,13.80
2012,07,25,01,26,13.80
2012,07,25,01,27,13.80
2012,07,25,01,28,13.80
2012,07,25,01,29,13.80
2012,07,25,01,30,13.80
2012,07,25,01,31,13.80
2012,07,25,01,32,13.80
2012,07,25,01,33,13.80
2012,07,25,01,34,13.80
2012,07,25,01,35,13.80
2012,07,25,01,36,13.80
2012,07,25,01,37,13.80
2012,07,25,01,38,13.80
2012,07,25,01,39,13.80
2012,07,25,01,40,13.80
2012,07,25,01,41,13.80
2012,07,25,01,42,13.80
2012,07,25,01,43,13.80
2012,07,25,01,44,13.70
2012,07,25,01,45,13.70
2012,07,25,01,46,13.70
2012,07,25,01,47,13.70
2012,07,25,01,48,13.70
2012,07,25,01,49,13.70
2012,07,25,01,50,13.60
2012,07,25,01,51,13.60
2012,07,25,01,52,13.60
2012,07,25,01,53,13.60
2012,07,25,01,54,13.60
2012,07,25,01,55,13.60
2012,07,25,01,56,13.60
2012,07,25,01,57,13.60
2012,07,25,01,58,13.60
2012,07,25,01,59,13.60
2012,07,25,02,00,13.60
2012,07,25,02,01,13.60
2012,07,25,02,02,13.60
2012,07,25,02,03,13.60
2012,07,25,02,04,13.60
2012,07,25,02,05,13.60
2012,07,25,02,06,13.60
2012,07,25,02,07,13.60
2012,07,25,02,08,13.60
2012,07,25,02,09,13.60
2012,07,25,02,10,13.60
2012,07,25,02,11,13.60
2012,07,25,02,12,13.60
2012,07,25,02,13,13.60
2012,07,25,02,14,13.60
2012,07,25,02,15,13.60
2012,07,25,02,16,13.60
2012,07,25,02,17,13.60
2012,07,25,02,18,13.60
2012,07,25,02,19,13.60
2012,07,25,02,20,13.60
2012,07,25,02,21,13.60
2012,07,25,02,22,13.60
2012,07,25,02,23,13.60
2012,07,25,02,24,13.60
2012,07,25,02,25,13.60
2012,07,25,02,26,13.60
2012,07,25,02,27,13.50
2012,07,25,02,28,13.50
2012,07,25,02,29,13.40
2012,07,25,02,30,13.40
2012,07,25,02,31,13.30
2012,07,25,02,32,13.30
2012,07,25,02,33,13.20
2012,07,25,02,34,13.20
2012,07,25,02,35,13.10
2012,07,25,02,36,13.10
2012,07,25,02,37,13.00
2012,07,25,02,38,12.90
2012,07,25,02,39,12.90
2012,07,25,02,40,12.90
2012,07,25,02,41,12.80
2012,07,25,02,42,12.80
2012,07,25,02,43,12.80
2012,07,25,02,44,12.80
2012,07,25,02,45,12.70
2012,07,25,02,46,12.70
2012,07,25,02,47,12.70
2012,07,25,02,48,12.60
2012,07,25,02,49,12.60
2012,07,25,02,50,12.60
2012,07,25,02,51,12.60
2012,07,25,02,52,12.50
2012,07,25,02,53,12.50
2012,07,25,02,54,12.50
2012,07,25,02,55,12.50
2012,07,25,02,56,12.40
2012,07,25,02,57,12.40
2012,07,25,02,58,12.40
2012,07,25,02,59,12.40
2012,07,25,03,00,12.40
2012,07,25,03,01,12.30
2012,07,25,03,02,12.30
2012,07,25,03,03,12.30
2012,07,25,03,04,12.30
2012,07,25,03,05,12.30
2012,07,25,03,06,12.30
2012,07,25,03,07,12.40
2012,07,25,03,08,12.40
2012,07,25,03,09,12.40
2012,07,25,03,10,12.50
2012,07,25,03,11,12.50
2012,07,25,03,12,12.50
2012,07,25,03,13,12.50
2012,07,25,03,14,12.50
2012,07,25,03,15,12.50
2012,07,25,03,16,12.50
2012,07,25,03,17,12.50
2012,07,25,03,18,12.50
2012,07,25,03,19,12.60
2012,07,25,03,20,12.60
2012,07,25,03,21,12.60
2012,07,25,03,22,12.60
2012,07,25,03,23,12.50
2012,07,25,03,24,12.50
2012,07,25,03,25,12.50
2012,07,25,03,26,12.50
2012,07,25,03,27,12.50
2012,07,25,03,28,12.50
2012,07,25,03,29,12.40
2012,07,25,03,30,12.40
2012,07,25,03,31,12.40
2012,07,25,03,32,12.40
2012,07,25,03,33,12.40
2012,07,25,03,34,12.40
2012,07,25,03,35,12.30
2012,07,25,03,36,12.30
2012,07,25,03,37,12.30
2012,07,25,03,38,12.30
2012,07,25,03,39,12.30
2012,07,25,03,40,12.30
2012,07,25,03,41,12.30
2012,07,25,03,42,12.30
2012,07,25,03,43,12.30
2012,07,25,03,44,12.20
2012,07,25,03,45,12.20
2012,07,25,03,46,12.20
2012,07,25,03,47,12.20
2012,07,25,03,48,12.20
2012,07,25,03,49,12.20
2012,07,25,03,50,12.20
2012,07,25,03,51,12.20
2012,07,25,03,52,12.20
2012,07,25,03,53,12.10
2012,07,25,03,54,12.10
2012,07,25,03,55,12.10
2012,07,25,03,56,12.10
2012,07,25,03,57,12.10
2012,07,25,03,58,12.10
2012,07,25,03,59,12.10
2012,07,25,04,00,12.10
2012,07,25,04,01,12.10
2012,07,25,04,02,12.10
2012,07,25,04,03,12.00
2012,07,25,04,04,12.00
2012,07,25,04,05,12.00
2012,07,25,04,06,12.00
2012,07,25,04,07,12.00
2012,07,25,04,08,12.00
2012,07,25,04,09,12.00
2012,07,25,04,10,12.00
2012,07,25,04,11,12.00
2012,07,25,04,12,12.10
2012,07,25,04,13,12.10
2012,07,25,04,14,12.10
2012,07,25,04,15,12.10
2012,07,25,04,16,12.10
2012,07,25,04,17,12.10
2012,07,25,04,18,12.10
2012,07,25,04,19,12.10
2012,07,25,04,20,12.10
2012,07,25,04,21,12.00
2012,07,25,04,22,12.10
2012,07,25,04,23,12.10
2012,07,25,04,24,12.10
2012,07,25,04,25,12.10
2012,07,25,04,26,12.10
2012,07,25,04,27,12.10
2012,07,25,04,28,12.00
2012,07,25,04,29,12.00
2012,07,25,04,30,12.00
2012,07,25,04,31,12.00
2012,07,25,04,32,12.00
2012,07,25,04,33,11.90
2012,07,25,04,34,11.90
2012,07,25,04,35,11.90
2012,07,25,04,36,11.90
2012,07,25,04,37,11.90
2012,07,25,04,38,11.90
2012,07,25,04,39,11.80
2012,07,25,04,40,11.80
2012,07,25,04,41,11.80
2012,07,25,04,42,11.80
2012,07,25,04,43,11.80
2012,07,25,04,44,11.80
2012,07,25,04,45,11.80
2012,07,25,04,46,11.80
2012,07,25,04,47,11.80
2012,07,25,04,48,11.70
2012,07,25,04,49,11.70
2012,07,25,04,50,11.70
2012,07,25,04,51,11.70
2012,07,25,04,52,11.70
2012,07,25,04,53,11.70
2012,07,25,04,54,11.70
2012,07,25,04,55,11.70
2012,07,25,04,56,11.70
2012,07,25,04,57,11.70
2012,07,25,04,58,11.70
2012,07,25,04,59,11.70
2012,07,25,05,00,11.70
2012,07,25,05,01,11.70
2012,07,25,05,02,11.70
2012,07,25,05,03,11.70
2012,07,25,05,04,11.60
2012,07,25,05,05,11.60
2012,07,25,05,06,11.60
2012,07,25,05,07,11.60
2012,07,25,05,08,11.60
2012,07,25,05,09,11.60
2012,07,25,05,10,11.60
2012,07,25,05,11,11.60
2012,07,25,05,12,11.60
2012,07,25,05,13,11.60
2012,07,25,05,14,11.60
2012,07,25,05,15,11.60
2012,07,25,05,16,11.60
2012,07,25,05,17,11.60
2012,07,25,05,18,11.60
2012,07,25,05,19,11.60
2012,07,25,05,20,11.60
2012,07,25,05,21,11.60
2012,07,25,05,22,11.60
2012,07,25,05,23,11.60
2012,07,25,05,24,11.60
2012,07,25,05,25,11.60
2012,07,25,05,26,11.60
2012,07,25,05,27,11.60
2012,07,25,05,28,11.60
2012,07,25,05,29,11.60
2012,07,25,05,30,11.60
2012,07,25,05,31,11.60
2012,07,25,05,32,11.60
2012,07,25,05,33,11.60
2012,07,25,05,34,11.60
2012,07,25,05,35,11.60
2012,07,25,05,36,11.60
2012,07,25,05,37,11.60
2012,07,25,05,38,11.60
2012,07,25,05,39,11.60
2012,07,25,05,40,11.60
2012,07,25,05,41,11.60
2012,07,25,05,42,11.60
2012,07,25,05,43,11.60
2012,07,25,05,44,11.60
2012,07,25,05,45,11.60
2012,07,25,05,46,11.60
2012,07,25,05,47,11.60
2012,07,25,05,48,11.50
2012,07,25,05,49,11.50
2012,07,25,05,50,11.50
2012,07,25,05,51,11.50
2012,07,25,05,52,11.50
2012,07,25,05,53,11.50
2012,07,25,05,54,11.50
2012,07,25,05,55,11.50
2012,07,25,05,56,11.50
2012,07,25,05,57,11.40
2012,07,25,05,58,11.40
2012,07,25,05,59,11.40
2012,07,25,06,00,11.40
2012,07,25,06,01,11.40
2012,07,25,06,02,11.40
2012,07,25,06,03,11.40
2012,07,25,06,04,11.40
2012,07,25,06,05,11.40
2012,07,25,06,06,11.40
2012,07,25,06,07,11.40
2012,07,25,06,08,11.40
2012,07,25,06,09,11.40
2012,07,25,06,10,11.40
2012,07,25,06,11,11.40
2012,07,25,06,12,11.40
2012,07,25,06,13,11.40
2012,07,25,06,14,11.40
2012,07,25,06,15,11.40
2012,07,25,06,16,11.40
2012,07,25,06,17,11.40
2012,07,25,06,18,11.40
2012,07,25,06,19,11.40
2012,07,25,06,20,11.40
2012,07,25,06,21,11.40
2012,07,25,06,22,11.40
2012,07,25,06,23,11.40
2012,07,25,06,24,11.50
2012,07,25,06,25,11.50
2012,07,25,06,26,11.50
2012,07,25,06,27,11.50
2012,07,25,06,28,11.50
2012,07,25,06,29,11.50
2012,07,25,06,30,11.60
2012,07,25,06,31,11.60
2012,07,25,06,32,11.60
2012,07,25,06,33,11.60
2012,07,25,06,34,11.70
2012,07,25,06,35,11.70
2012,07,25,06,36,11.70
2012,07,25,06,37,11.70
2012,07,25,06,38,11.80
2012,07,25,06,39,11.80
2012,07,25,06,40,11.80
2012,07,25,06,41,11.80
2012,07,25,06,42,11.80
2012,07,25,06,43,11.80
2012,07,25,06,44,11.80
2012,07,25,06,45,11.80
2012,07,25,06,46,11.80
2012,07,25,06,47,11.80
2012,07,25,06,48,11.80
2012,07,25,06,49,11.80
2012,07,25,06,50,11.90
2012,07,25,06,51,11.90
2012,07,25,06,52,11.90
2012,07,25,06,53,12.00
2012,07,25,06,54,12.00
2012,07,25,06,55,12.00
2012,07,25,06,56,12.10
2012,07,25,06,57,12.10
2012,07,25,06,58,12.10
2012,07,25,06,59,12.20
2012,07,25,07,00,12.20
2012,07,25,07,01,12.20
2012,07,25,07,02,12.20
2012,07,25,07,03,12.30
2012,07,25,07,04,12.30
2012,07,25,07,05,12.30
2012,07,25,07,06,12.40
2012,07,25,07,07,12.40
2012,07,25,07,08,12.40
2012,07,25,07,09,12.50
2012,07,25,07,10,12.50
2012,07,25,07,11,12.60
2012,07,25,07,12,12.60
2012,07,25,07,13,12.60
2012,07,25,07,14,12.60
2012,07,25,07,15,12.70
2012,07,25,07,16,12.70
2012,07,25,07,17,12.80
2012,07,25,07,18,12.80
2012,07,25,07,19,12.80
2012,07,25,07,20,12.80
2012,07,25,07,21,12.90
2012,07,25,07,22,12.90
2012,07,25,07,23,13.00
2012,07,25,07,24,13.00
2012,07,25,07,25,13.10
2012,07,25,07,26,13.10
2012,07,25,07,27,13.20
2012,07,25,07,28,13.20
2012,07,25,07,29,13.30
2012,07,25,07,30,13.30
2012,07,25,07,31,13.30
2012,07,25,07,32,13.40
2012,07,25,07,33,13.40
2012,07,25,07,34,13.40
2012,07,25,07,35,13.50
2012,07,25,07,36,13.50
2012,07,25,07,37,13.60
2012,07,25,07,38,13.60
2012,07,25,07,39,13.60
2012,07,25,07,40,13.70
2012,07,25,07,41,13.70
2012,07,25,07,42,13.80
2012,07,25,07,43,13.80
2012,07,25,07,44,13.80
2012,07,25,07,45,13.90
2012,07,25,07,46,13.90
2012,07,25,07,47,14.00
2012,07,25,07,48,14.00
2012,07,25,07,49,14.10
2012,07,25,07,50,14.10
2012,07,25,07,51,14.20
2012,07,25,07,52,14.20
2012,07,25,07,53,14.30
2012,07,25,07,54,14.30
2012,07,25,07,55,14.40
2012,07,25,07,56,14.40
2012,07,25,07,57,14.50
2012,07,25,07,58,14.50
2012,07,25,07,59,14.60
2012,07,25,08,00,14.60
2012,07,25,08,01,14.70
2012,07,25,08,02,14.70
2012,07,25,08,03,14.80
2012,07,25,08,04,14.80
2012,07,25,08,05,14.90
2012,07,25,08,06,14.90
2012,07,25,08,07,15.00
2012,07,25,08,08,15.00
2012,07,25,08,09,15.10
2012,07,25,08,10,15.10
2012,07,25,08,11,15.20
2012,07,25,08,12,15.20
2012,07,25,08,13,15.30
2012,07,25,08,14,15.30
2012,07,25,08,15,15.30
2012,07,25,08,16,15.40
2012,07,25,08,17,15.40
2012,07,25,08,18,15.50
2012,07,25,08,19,15.60
2012,07,25,08,20,15.60
2012,07,25,08,21,15.70
2012,07,25,08,22,15.70
2012,07,25,08,23,15.80
2012,07,25,08,24,15.80
2012,07,25,08,25,15.90
2012,07,25,08,26,15.90
2012,07,25,08,27,16.00
2012,07,25,08,28,16.00
2012,07,25,08,29,16.10
2012,07,25,08,30,16.20
2012,07,25,08,31,16.30
2012,07,25,08,32,16.30
2012,07,25,08,33,16.40
2012,07,25,08,34,16.50
2012,07,25,08,35,16.50
2012,07,25,08,36,16.60
2012,07,25,08,37,16.70
2012,07,25,08,38,16.80
2012,07,25,08,39,16.90
2012,07,25,08,40,17.10
2012,07,25,08,41,17.10
2012,07,25,08,42,17.20
2012,07,25,08,43,17.30
2012,07,25,08,44,17.30
2012,07,25,08,45,17.40
2012,07,25,08,46,17.40
2012,07,25,08,47,17.40
2012,07,25,08,48,17.40
2012,07,25,08,49,17.50
2012,07,25,08,50,17.50
2012,07,25,08,51,17.60
2012,07,25,08,52,17.60
2012,07,25,08,53,17.60
2012,07,25,08,54,17.60
2012,07,25,08,55,17.70
2012,07,25,08,56,17.70
2012,07,25,08,57,17.70
2012,07,25,08,58,17.70
2012,07,25,08,59,17.70
2012,07,25,09,00,17.70
2012,07,25,09,01,17.70
2012,07,25,09,02,17.70
2012,07,25,09,03,17.80
2012,07,25,09,04,17.80
2012,07,25,09,05,17.80
2012,07,25,09,06,17.90
2012,07,25,09,07,17.90
2012,07,25,09,08,17.90
2012,07,25,09,09,18.00
2012,07,25,09,10,18.00
2012,07,25,09,11,18.10
2012,07,25,09,12,18.10
2012,07,25,09,13,18.10
2012,07,25,09,14,18.10
2012,07,25,09,15,18.20
2012,07,25,09,16,18.20
2012,07,25,09,17,18.20
2012,07,25,09,18,18.30
2012,07,25,09,19,18.30
2012,07,25,09,20,18.30
2012,07,25,09,21,18.30
2012,07,25,09,22,18.30
2012,07,25,09,23,18.30
2012,07,25,09,24,18.40
2012,07,25,09,25,18.40
2012,07,25,09,26,18.40
2012,07,25,09,27,18.40
2012,07,25,09,28,18.50
2012,07,25,09,29,18.50
2012,07,25,09,30,18.50
2012,07,25,09,31,18.50
2012,07,25,09,32,18.50
2012,07,25,09,33,18.50
2012,07,25,09,34,18.50
2012,07,25,09,35,18.60
2012,07,25,09,36,18.60
2012,07,25,09,37,18.60
2012,07,25,09,38,18.60
2012,07,25,09,39,18.60
2012,07,25,09,40,18.60
2012,07,25,09,41,18.60
2012,07,25,09,42,18.60
2012,07,25,09,43,18.60
2012,07,25,09,44,18.60
2012,07,25,09,45,18.60
2012,07,25,09,46,18.60
2012,07,25,09,47,18.60
2012,07,25,09,48,18.60
2012,07,25,09,49,18.60
2012,07,25,09,50,18.70
2012,07,25,09,51,18.70
2012,07,25,09,52,18.70
2012,07,25,09,53,18.70
2012,07,25,09,54,18.70
2012,07,25,09,55,18.80
2012,07,25,09,56,18.80
2012,07,25,09,57,18.80
2012,07,25,09,58,18.90
2012,07,25,09,59,18.90
2012,07,25,10,00,18.90
2012,07,25,10,01,18.90
2012,07,25,10,02,19.00
2012,07,25,10,03,19.00
2012,07,25,10,04,19.10
2012,07,25,10,05,19.20
2012,07,25,10,06,19.20
2012,07,25,10,07,19.20
2012,07,25,10,08,19.30
2012,07,25,10,09,19.30
2012,07,25,10,10,19.30
2012,07,25,10,11,19.40
2012,07,25,10,12,19.40
2012,07,25,10,13,19.50
2012,07,25,10,14,19.50
2012,07,25,10,15,19.60
2012,07,25,10,16,19.60
2012,07,25,10,17,19.70
2012,07,25,10,18,19.70
2012,07,25,10,19,19.70
2012,07,25,10,20,19.80
2012,07,25,10,21,19.80
2012,07,25,10,22,19.90
2012,07,25,10,23,20.00
2012,07,25,10,24,20.00
2012,07,25,10,25,20.10
2012,07,25,10,26,20.10
2012,07,25,10,27,20.20
2012,07,25,10,28,20.20
2012,07,25,10,29,20.20
2012,07,25,10,30,20.20
2012,07,25,10,31,20.30
2012,07,25,10,32,20.30
2012,07,25,10,33,20.30
2012,07,25,10,34,20.30
2012,07,25,10,35,20.40
2012,07,25,10,36,20.40
2012,07,25,10,37,20.40
2012,07,25,10,38,20.40
2012,07,25,10,39,20.40
2012,07,25,10,40,20.40
2012,07,25,10,41,20.40
2012,07,25,10,42,20.40
2012,07,25,10,43,20.40
2012,07,25,10,44,20.40
2012,07,25,10,45,20.40
2012,07,25,10,46,20.40
2012,07,25,10,47,20.40
2012,07,25,10,48,20.50
2012,07,25,10,49,20.50
2012,07,25,10,50,20.60
2012,07,25,10,51,20.60
2012,07,25,10,52,20.60
2012,07,25,10,53,20.60
2012,07,25,10,54,20.70
2012,07,25,10,55,20.70
2012,07,25,10,56,20.70
2012,07,25,10,57,20.70
2012,07,25,10,58,20.70
2012,07,25,10,59,20.70
2012,07,25,11,00,20.70
2012,07,25,11,01,20.70
2012,07,25,11,02,20.60
2012,07,25,11,03,20.60
2012,07,25,11,04,20.60
2012,07,25,11,05,20.60
2012,07,25,11,06,20.60
2012,07,25,11,07,20.70
2012,07,25,11,08,20.70
2012,07,25,11,09,20.80
2012,07,25,11,10,20.80
2012,07,25,11,11,20.90
2012,07,25,11,12,20.90
2012,07,25,11,13,20.90
2012,07,25,11,14,20.90
2012,07,25,11,15,21.00
2012,07,25,11,16,21.00
2012,07,25,11,17,21.00
2012,07,25,11,18,21.00
2012,07,25,11,19,21.00
2012,07,25,11,20,21.10
2012,07,25,11,21,21.10
2012,07,25,11,22,21.10
2012,07,25,11,23,21.10
2012,07,25,11,24,21.20
2012,07,25,11,25,21.20
2012,07,25,11,26,21.30
2012,07,25,11,27,21.30
2012,07,25,11,28,21.40
2012,07,25,11,29,21.40
2012,07,25,11,30,21.40
2012,07,25,11,31,21.40
2012,07,25,11,32,21.40
2012,07,25,11,33,21.40
2012,07,25,11,34,21.40
2012,07,25,11,35,21.50
2012,07,25,11,36,21.50
2012,07,25,11,37,21.50
2012,07,25,11,38,21.60
2012,07,25,11,39,21.60
2012,07,25,11,40,21.60
2012,07,25,11,41,21.70
2012,07,25,11,42,21.70
2012,07,25,11,43,21.70
2012,07,25,11,44,21.70
2012,07,25,11,45,21.70
2012,07,25,11,46,21.70
2012,07,25,11,47,21.70
2012,07,25,11,48,21.70
2012,07,25,11,49,21.70
2012,07,25,11,50,21.70
2012,07,25,11,51,21.70
2012,07,25,11,52,21.70
2012,07,25,11,53,21.80
2012,07,25,11,54,21.80
2012,07,25,11,55,21.90
2012,07,25,11,56,21.90
2012,07,25,11,57,21.90
2012,07,25,11,58,21.90
2012,07,25,11,59,22.00
2012,07,25,12,00,22.00
2012,07,25,12,01,22.10
2012,07,25,12,02,22.10
2012,07,25,12,03,22.10
2012,07,25,12,04,22.10
2012,07,25,12,05,22.10
2012,07,25,12,06,22.00
2012,07,25,12,07,22.00
2012,07,25,12,08,22.00
2012,07,25,12,09,22.00
2012,07,25,12,10,21.90
2012,07,25,12,11,22.00
2012,07,25,12,12,22.00
2012,07,25,12,13,22.00
2012,07,25,12,14,22.00
2012,07,25,12,15,22.00
2012,07,25,12,16,22.10
2012,07,25,12,17,22.10
2012,07,25,12,18,22.20
2012,07,25,12,19,22.20
2012,07,25,12,20,22.20
2012,07,25,12,21,22.10
2012,07,25,12,22,22.10
2012,07,25,12,23,22.10
2012,07,25,12,24,22.10
2012,07,25,12,25,22.10
2012,07,25,12,26,22.10
2012,07,25,12,27,22.10
2012,07,25,12,28,22.10
2012,07,25,12,29,22.10
2012,07,25,12,30,22.10
2012,07,25,12,31,22.10
2012,07,25,12,32,22.10
2012,07,25,12,33,22.10
2012,07,25,12,34,22.10
2012,07,25,12,35,22.20
2012,07,25,12,36,22.10
2012,07,25,12,37,22.20
2012,07,25,12,38,22.20
2012,07,25,12,39,22.20
2012,07,25,12,40,22.30
2012,07,25,12,41,22.30
2012,07,25,12,42,22.30
2012,07,25,12,43,22.30
2012,07,25,12,44,22.30
2012,07,25,12,45,22.30
2012,07,25,12,46,22.30
2012,07,25,12,47,22.30
2012,07,25,12,48,22.30
2012,07,25,12,49,22.30
2012,07,25,12,50,22.30
2012,07,25,12,51,22.30
2012,07,25,12,52,22.40
2012,07,25,12,53,22.40
2012,07,25,12,54,22.40
2012,07,25,12,55,22.40
2012,07,25,12,56,22.40
2012,07,25,12,57,22.50
2012,07,25,12,58,22.50
2012,07,25,12,59,22.50
2012,07,25,13,00,22.60
2012,07,25,13,01,22.60
2012,07,25,13,02,22.70
2012,07,25,13,03,22.70
2012,07,25,13,04,22.70
2012,07,25,13,05,22.70
2012,07,25,13,06,22.70
2012,07,25,13,07,22.60
2012,07,25,13,08,22.60
2012,07,25,13,09,22.60
2012,07,25,13,10,22.60
2012,07,25,13,11,22.60
2012,07,25,13,12,22.50
2012,07,25,13,13,22.50
2012,07,25,13,14,22.50
2012,07,25,13,15,22.60
2012,07,25,13,16,22.60
2012,07,25,13,17,22.60
2012,07,25,13,18,22.60
2012,07,25,13,19,22.60
2012,07,25,13,20,22.60
2012,07,25,13,21,22.60
2012,07,25,13,22,22.60
2012,07,25,13,23,22.60
2012,07,25,13,24,22.70
2012,07,25,13,25,22.70
2012,07,25,13,26,22.70
2012,07,25,13,27,22.70
2012,07,25,13,28,22.70
2012,07,25,13,29,22.70
2012,07,25,13,30,22.70
2012,07,25,13,31,22.70
2012,07,25,13,32,22.70
2012,07,25,13,33,22.70
2012,07,25,13,34,22.70
2012,07,25,13,35,22.70
2012,07,25,13,36,22.70
2012,07,25,13,37,22.70
2012,07,25,13,38,22.70
2012,07,25,13,39,22.80
2012,07,25,13,40,22.80
2012,07,25,13,41,22.80
2012,07,25,13,42,22.90
2012,07,25,13,43,22.90
2012,07,25,13,44,22.90
2012,07,25,13,45,22.90
2012,07,25,13,46,22.90
2012,07,25,13,47,23.00
2012,07,25,13,48,23.00
2012,07,25,13,49,23.00
2012,07,25,13,50,23.10
2012,07,25,13,51,23.10
2012,07,25,13,52,23.10
2012,07,25,13,53,23.20
2012,07,25,13,54,23.20
2012,07,25,13,55,23.20
2012,07,25,13,56,23.20
2012,07,25,13,57,23.20
2012,07,25,13,58,23.20
2012,07,25,13,59,23.20
2012,07,25,14,00,23.20
2012,07,25,14,01,23.20
2012,07,25,14,02,23.20
2012,07,25,14,03,23.20
2012,07,25,14,04,23.20
2012,07,25,14,05,23.20
2012,07,25,14,06,23.20
2012,07,25,14,07,23.20
2012,07,25,14,08,23.20
2012,07,25,14,09,23.20
2012,07,25,14,10,23.20
2012,07,25,14,11,23.30
2012,07,25,14,12,23.30
2012,07,25,14,13,23.30
2012,07,25,14,14,23.40
2012,07,25,14,15,23.40
2012,07,25,14,16,23.30
2012,07,25,14,17,23.30
2012,07,25,14,18,23.40
2012,07,25,14,19,23.40
2012,07,25,14,20,23.40
2012,07,25,14,21,23.40
2012,07,25,14,22,23.40
2012,07,25,14,23,23.40
2012,07,25,14,24,23.40
2012,07,25,14,25,23.40
2012,07,25,14,26,23.40
2012,07,25,14,27,23.40
2012,07,25,14,28,23.50
2012,07,25,14,29,23.50
2012,07,25,14,30,23.50
2012,07,25,14,31,23.40
2012,07,25,14,32,23.40
2012,07,25,14,33,23.40
2012,07,25,14,34,23.40
2012,07,25,14,35,23.40
2012,07,25,14,36,23.40
2012,07,25,14,37,23.50
2012,07,25,14,38,23.50
2012,07,25,14,39,23.50
2012,07,25,14,40,23.50
2012,07,25,14,41,23.50
2012,07,25,14,42,23.60
2012,07,25,14,43,23.60
2012,07,25,14,44,23.60
2012,07,25,14,45,23.60
2012,07,25,14,46,23.70
2012,07,25,14,47,23.70
2012,07,25,14,48,23.70
2012,07,25,14,49,23.70
2012,07,25,14,50,23.80
2012,07,25,14,51,23.80
2012,07,25,14,52,23.80
2012,07,25,14,53,23.80
2012,07,25,14,54,23.90
2012,07,25,14,55,23.90
2012,07,25,14,56,23.90
2012,07,25,14,57,24.00
2012,07,25,14,58,24.00
2012,07,25,14,59,24.10
2012,07,25,15,00,24.10
2012,07,25,15,01,24.10
2012,07,25,15,02,24.10
2012,07,25,15,03,24.10
2012,07,25,15,04,24.10
2012,07,25,15,05,24.10
2012,07,25,15,06,24.10
2012,07,25,15,07,24.10
2012,07,25,15,08,24.10
2012,07,25,15,09,24.10
2012,07,25,15,10,24.10
2012,07,25,15,11,24.10
2012,07,25,15,12,24.10
2012,07,25,15,13,24.10
2012,07,25,15,14,24.10
2012,07,25,15,15,24.10
2012,07,25,15,16,24.10
2012,07,25,15,17,24.10
2012,07,25,15,18,24.10
2012,07,25,15,19,24.10
2012,07,25,15,20,24.10
2012,07,25,15,21,24.10
2012,07,25,15,22,24.10
2012,07,25,15,23,24.10
2012,07,25,15,24,24.10
2012,07,25,15,25,24.10
2012,07,25,15,26,24.10
2012,07,25,15,27,24.00
2012,07,25,15,28,24.00
2012,07,25,15,29,24.00
2012,07,25,15,30,24.00
2012,07,25,15,31,24.10
2012,07,25,15,32,24.00
2012,07,25,15,33,24.00
2012,07,25,15,34,24.00
2012,07,25,15,35,24.00
2012,07,25,15,36,24.00
2012,07,25,15,37,23.90
2012,07,25,15,38,23.90
2012,07,25,15,39,23.90
2012,07,25,15,40,23.80
2012,07,25,15,41,23.80
2012,07,25,15,42,23.90
2012,07,25,15,43,23.90
2012,07,25,15,44,23.90
2012,07,25,15,45,23.90
2012,07,25,15,46,23.80
2012,07,25,15,47,23.80
2012,07,25,15,48,23.80
2012,07,25,15,49,23.80
2012,07,25,15,50,23.80
2012,07,25,15,51,23.80
2012,07,25,15,52,23.80
2012,07,25,15,53,23.80
2012,07,25,15,54,23.80
2012,07,25,15,55,23.80
2012,07,25,15,56,23.70
2012,07,25,15,57,23.60
2012,07,25,15,58,23.50
2012,07,25,15,59,23.40
2012,07,25,16,00,23.40
2012,07,25,16,01,23.30
2012,07,25,16,02,23.40
2012,07,25,16,03,23.40
2012,07,25,16,04,23.40
2012,07,25,16,05,23.30
2012,07,25,16,06,23.30
2012,07,25,16,07,23.30
2012,07,25,16,08,23.30
2012,07,25,16,09,23.20
2012,07,25,16,10,23.10
2012,07,25,16,11,23.10
2012,07,25,16,12,23.00
2012,07,25,16,13,23.00
2012,07,25,16,14,23.00
2012,07,25,16,15,22.90
2012,07,25,16,16,22.90
2012,07,25,16,17,22.90
2012,07,25,16,18,22.90
2012,07,25,16,19,22.90
2012,07,25,16,20,22.90
2012,07,25,16,21,22.90
2012,07,25,16,22,22.90
2012,07,25,16,23,22.90
2012,07,25,16,24,22.90
2012,07,25,16,25,22.90
2012,07,25,16,26,22.80
2012,07,25,16,27,22.80
2012,07,25,16,28,22.90
2012,07,25,16,29,22.80
2012,07,25,16,30,22.80
2012,07,25,16,31,22.80
2012,07,25,16,32,22.90
2012,07,25,16,33,22.90
2012,07,25,16,34,22.90
2012,07,25,16,35,22.90
2012,07,25,16,36,22.90
2012,07,25,16,37,23.00
2012,07,25,16,38,23.00
2012,07,25,16,39,23.10
2012,07,25,16,40,23.10
2012,07,25,16,41,23.20
2012,07,25,16,42,23.20
2012,07,25,16,43,23.20
2012,07,25,16,44,23.20
2012,07,25,16,45,23.20
2012,07,25,16,46,23.20
2012,07,25,16,47,23.20
2012,07,25,16,48,23.30
2012,07,25,16,49,23.30
2012,07,25,16,50,23.30
2012,07,25,16,51,23.30
2012,07,25,16,52,23.30
2012,07,25,16,53,23.30
2012,07,25,16,54,23.30
2012,07,25,16,55,23.20
2012,07,25,16,56,23.20
2012,07,25,16,57,23.20
2012,07,25,16,58,23.30
2012,07,25,16,59,23.30
2012,07,25,17,00,23.30
2012,07,25,17,01,23.30
2012,07,25,17,02,23.30
2012,07,25,17,03,23.30
2012,07,25,17,04,23.30
2012,07,25,17,05,23.30
2012,07,25,17,06,23.30
2012,07,25,17,07,23.30
2012,07,25,17,08,23.30
2012,07,25,17,09,23.30
2012,07,25,17,10,23.30
2012,07,25,17,11,23.30
2012,07,25,17,12,23.30
2012,07,25,17,13,23.30
2012,07,25,17,14,23.30
2012,07,25,17,15,23.30
2012,07,25,17,16,23.40
2012,07,25,17,17,23.40
2012,07,25,17,18,23.40
2012,07,25,17,19,23.40